Theta_e
342 344 346 347 347 347 346 347 347 347 347 347 347 346 346 345 344 344 344 344 343 342 342 342 341 340 340 338 338 337 336 335 333 329 325 322 320 321 322 324 324 324 324 325 325 324 324 323 322 320 318 315
337 340 344 344 343 344 344 346 347 347 346 346 346 345 343 341 341 342 343 343 343 342 342 341 341 341 339 337 337 336 335 334 331 328 324 320 320 320 322 322 322 323 322 323 323 322 320 318 317 315 313 308
334 334 338 341 340 341 342 343 344 345 342 342 341 338 336 335 336 337 338 341 341 340 338 337 339 339 338 337 336 335 335 334 332 329 325 322 320 320 321 321 321 321 321 321 321 319 318 314 311 309 304 301
338 330 330 335 337 337 339 340 340 340 337 336 332 330 330 330 331 330 332 329 333 334 335 334 332 337 338 337 336 335 334 333 332 329 327 324 321 319 319 320 320 320 320 320 319 318 316 311 307 297 296 297
338 334 328 331 332 332 334 335 335 335 328 325 324 325 324 326 334 334 332 332 331 326 330 325 327 336 337 337 336 335 333 333 332 330 328 325 323 321 319 318 317 319 320 320 318 316 312 308 298 296 295 296
339 335 333 336 336 335 333 329 326 329 331 329 329 322 326 333 332 333 333 333 331 331 327 326 324 328 334 336 334 334 333 333 332 331 329 327 325 323 322 315 303 305 311 316 314 311 308 301 299 297 295 295
333 337 337 336 337 336 330 331 332 334 331 332 331 330 332 333 334 334 333 332 330 330 324 327 322 326 331 334 332 332 333 332 332 332 331 329 327 323 319 308 305 304 302 303 307 304 301 299 299 298 296 295
330 337 338 336 337 336 335 334 333 334 334 333 333 333 333 334 334 335 333 327 324 326 328 325 323 325 327 328 327 326 328 329 331 331 330 327 322 317 313 309 307 307 306 305 303 300 299 299 299 299 296 296
328 330 335 338 337 336 334 334 333 333 334 333 333 333 332 329 326 327 329 330 330 330 329 329 329 331 332 331 327 323 323 322 321 321 318 316 314 312 312 310 309 309 308 307 306 303 300 299 299 299 298 296
326 326 329 337 337 336 335 334 334 333 333 333 334 333 331 328 328 329 328 329 330 330 331 330 330 331 331 328 326 324 325 324 323 322 321 317 315 313 312 311 309 309 309 308 306 304 303 302 300 299 298 297
326 325 326 333 335 334 333 332 330 329 329 329 329 330 329 328 326 328 328 328 328 330 329 328 327 328 328 327 325 325 326 325 323 323 322 318 316 315 313 311 310 309 308 308 307 305 304 304 303 301 299 299
329 328 328 328 328 329 327 327 327 327 327 327 327 326 326 325 326 327 328 327 327 327 327 327 327 327 327 328 327 325 327 325 323 323 322 320 318 316 314 313 311 310 309 308 308 307 305 304 303 302 301 300
328 328 327 327 326 324 323 325 325 325 326 325 325 326 326 328 328 327 327 326 325 325 324 324 324 325 325 325 326 326 324 323 322 321 321 320 318 317 315 313 311 309 308 308 308 307 306 304 302 301 300 299
327 326 324 323 323 322 321 322 322 323 322 323 323 324 325 327 329 328 327 325 325 323 322 322 322 322 322 322 323 323 322 322 321 320 319 318 318 317 316 313 310 310 309 308 309 308 306 304 303 301 300 299
324 324 322 321 321 320 318 318 318 318 319 320 321 322 323 324 325 326 325 324 323 322 321 321 321 320 321 320 320 321 319 320 320 319 319 318 318 317 315 314 314 312 310 309 311 309 306 303 302 301 300 299
318 318 317 316 316 316 315 315 315 315 316 316 318 320 321 321 322 322 321 321 321 320 320 319 319 319 320 319 319 319 319 318 318 318 317 316 315 315 314 313 314 314 313 312 311 309 306 304 302 301 300 300
313 314 313 312 312 312 313 312 312 312 313 313 315 317 319 320 320 319 319 318 318 318 319 318 318 317 317 317 318 318 317 317 316 315 313 311 310 308 308 310 311 312 312 311 309 307 304 302 301 300 300 300
310 310 310 309 309 309 309 309 309 308 309 310 311 313 315 317 318 317 317 316 315 314 314 313 314 313 313 314 314 313 313 312 311 310 307 304 305 304 304 304 305 308 310 309 307 305 303 302 301 300 299 298
308 308 308 308 307 307 307 306 306 306 306 307 308 310 312 313 313 313 313 313 313 312 311 310 309 308 308 309 308 307 305 304 303 303 303 303 302 302 302 303 304 306 307 307 305 303 302 301 300 298 297 296
307 306 306 306 306 305 304 304 303 303 304 304 305 307 308 309 310 310 309 308 309 310 309 308 307 307 307 306 305 305 303 302 301 300 299 299 302 301 300 301 301 302 304 305 303 302 301 299 297 295 295 294
305 305 304 304 303 302 302 302 301 301 302 302 303 303 304 305 305 306 306 305 305 305 305 305 305 305 306 307 306 305 304 302 301 299 297 296 298 299 298 299 299 299 302 302 301 301 299 296 294 293 292 290
302 302 302 301 301 300 300 299 299 299 300 300 300 301 301 302 303 303 303 302 302 301 300 301 301 302 303 303 302 300 299 298 298 297 295 293 293 293 293 294 296 297 299 300 299 298 296 294 293 290 289 288
301 300 299 299 298 298 297 297 297 297 298 298 298 298 299 300 300 300 300 300 299 299 298 298 299 300 300 299 298 296 294 292 291 291 291 290 289 290 289 290 291 296 297 297 297 296 294 294 292 291 289 288
300 299 298 297 297 296 295 295 295 295 294 294 295 295 296 296 296 297 297 297 297 297 296 296 296 296 297 296 295 293 292 290 289 288 288 287 287 288 289 289 291 295 295 294 294 293 293 292 292 291 290 289
300 298 297 297 296 294 293 293 293 292 292 292 293 293 293 293 294 294 294 294 295 294 294 293 293 293 292 292 292 292 291 290 290 289 288 287 288 289 290 288 287 288 292 293 289 289 288 289 289 291 290 289
300 299 298 296 293 292 293 293 292 290 291 291 292 291 291 291 291 291 291 291 291 291 292 291 291 290 290 290 289 289 289 288 289 288 288 287 286 286 287 285 285 286 289 290 288 287 286 286 287 287 287 287
297 296 295 294 292 292 289 290 290 290 290 291 290 289 289 289 289 289 289 289 289 289 289 289 289 288 288 288 289 288 287 287 286 286 286 286 286 285 285 285 286 285 287 288 286 287 285 283 281 285 283 283
296 295 293 292 292 291 289 288 289 289 290 290 289 287 287 287 287 287 287 287 287 287 287 287 287 287 287 287 287 287 286 285 285 285 285 285 285 285 284 282 284 285 285 286 288 288 286 284 280 280 278 280
294 292 291 290 290 289 288 288 288 288 287 287 287 286 285 285 286 286 286 286 286 287 286 286 286 286 286 286 286 286 285 285 284 284 284 284 284 283 283 282 281 284 284 284 285 285 279 279 278 279 277 277
293 292 290 289 288 287 286 286 286 286 285 285 285 284 283 284 285 285 285 285 285 285 286 285 285 285 285 285 285 286 285 284 284 284 284 283 283 282 282 283 282 281 283 283 284 283 282 280 277 277 279 276
293 292 291 291 290 288 287 286 284 283 284 284 283 284 284 283 284 284 284 283 284 284 284 284 284 284 284 284 284 285 285 284 283 283 283 283 283 283 284 282 281 280 280 280 282 282 282 282 282 281 277 279
Wind_Speed
8 8 8 8 8 8 6 6 8 9 9 10 11 10 10 9 10 10 11 12 11 11 10 12 12 12 12 12 12 12 12 13 13 13 13 12 12 13 13 14 14 14 15 15 15 14 14 13 13 12 9 7
7 8 8 8 7 8 7 5 7 7 8 9 9 8 8 7 8 10 10 11 11 11 11 11 11 12 12 12 12 11 12 12 12 12 13 13 13 13 14 14 15 14 15 15 15 14 13 13 13 12 11 7
4 7 7 8 8 7 7 5 5 7 8 8 8 7 7 6 6 7 9 9 9 8 8 9 9 11 11 12 11 11 11 12 12 12 13 13 13 14 14 14 15 15 14 14 14 13 13 12 12 12 8 6
2 2 5 7 7 7 6 6 6 7 8 8 8 7 7 6 4 4 4 7 5 6 7 7 6 9 9 11 11 10 11 11 11 11 12 12 12 13 13 13 13 13 14 14 13 12 12 11 11 8 6 6
3 3 3 3 4 7 6 6 7 7 8 7 6 6 6 6 4 3 4 4 4 5 4 6 8 8 8 8 8 8 9 10 11 11 10 11 11 11 11 10 10 11 11 12 12 12 11 10 8 7 7 7
3 3 4 4 3 3 4 5 6 5 5 4 4 5 5 3 3 3 3 3 5 4 4 4 7 8 8 8 7 7 7 8 10 10 9 9 10 10 9 9 7 7 9 11 11 10 10 8 6 7 7 7
0 5 3 4 4 3 3 4 4 4 5 4 4 4 4 3 3 4 4 4 4 4 5 5 7 8 9 8 7 6 6 6 8 10 9 9 9 9 9 6 6 6 7 7 10 9 7 6 6 6 7 7
1 2 3 3 3 4 3 3 3 3 4 4 4 5 4 5 4 5 4 6 8 7 4 4 5 8 8 8 6 6 5 5 6 8 10 9 9 7 5 6 6 6 6 6 6 6 6 6 6 6 6 7
2 2 2 4 3 4 3 3 2 2 3 3 3 3 3 2 3 2 3 4 5 4 5 5 5 5 5 4 3 4 4 3 2 4 5 5 5 6 6 6 6 6 6 6 6 6 6 6 5 6 6 6
3 2 3 4 4 4 3 4 4 4 4 4 3 3 3 4 5 4 4 4 4 4 4 5 5 4 5 5 4 3 4 2 2 3 4 5 5 5 6 6 6 5 6 6 6 6 6 7 6 6 6 6
1 3 3 3 4 5 4 5 5 5 5 4 4 3 3 3 4 4 4 4 4 3 3 4 3 4 3 4 3 3 4 2 2 2 4 4 4 4 5 6 6 6 6 5 6 6 7 7 7 6 6 7
3 3 5 6 6 6 5 6 5 5 5 5 4 3 4 4 3 4 4 4 4 3 3 3 4 3 3 3 3 2 4 4 4 5 4 4 3 5 4 6 6 6 5 6 6 7 7 7 7 7 7 7
4 5 5 6 6 6 4 7 5 5 6 5 3 4 5 4 5 5 5 5 4 5 5 4 4 4 4 2 3 4 5 4 4 5 4 4 4 5 5 4 6 6 5 5 6 7 7 7 8 7 7 7
5 6 6 5 6 6 6 6 5 5 5 4 4 5 4 4 5 5 6 6 4 6 6 5 5 5 4 5 4 5 5 4 6 6 5 5 5 5 5 5 5 6 5 5 5 7 8 8 8 7 7 7
6 6 7 6 6 5 5 6 5 5 6 6 6 4 4 5 5 5 5 6 6 5 6 5 6 5 4 5 5 5 5 4 5 5 5 5 5 5 5 5 5 5 5 5 5 7 9 7 8 8 7 7
7 7 7 6 6 6 5 6 5 6 7 6 4 4 4 5 5 5 5 6 5 6 6 6 6 5 5 5 4 4 6 6 5 6 6 6 6 5 6 6 6 5 5 5 5 6 8 8 8 7 7 8
7 7 7 7 6 6 5 7 6 6 6 5 5 4 4 5 5 5 6 6 6 6 6 6 7 6 6 5 5 5 7 8 6 6 6 6 5 6 6 6 6 6 6 6 7 7 8 8 8 7 7 7
7 6 6 7 6 6 6 6 6 6 5 5 5 4 5 5 5 5 5 7 6 6 6 6 6 7 6 4 5 5 5 6 5 6 7 5 7 6 6 6 5 6 6 6 7 8 8 8 7 7 8 7
8 6 5 6 6 5 6 6 7 5 5 5 4 4 5 6 6 6 5 5 7 6 6 6 6 6 5 5 5 7 6 7 6 7 7 5 7 6 6 6 5 5 5 7 9 8 7 7 7 7 7 7
8 7 6 5 5 7 6 6 6 5 5 5 4 5 5 5 6 6 6 5 6 7 6 6 6 6 6 6 7 7 6 6 7 7 7 6 4 7 6 5 5 4 6 7 8 7 8 7 7 7 7 7
8 7 7 6 5 7 7 7 6 5 5 5 5 5 5 5 6 6 6 6 6 8 7 6 6 5 6 5 7 7 6 7 5 6 7 7 7 5 5 6 6 6 6 8 8 8 8 7 7 8 6 6
8 8 8 7 5 7 8 7 6 5 5 5 5 5 6 6 6 6 7 7 7 7 7 6 6 6 6 7 8 7 7 7 5 6 6 8 7 6 6 6 7 7 7 7 7 8 8 7 7 6 6 6
8 10 9 7 6 7 7 7 6 5 5 4 4 7 6 6 6 6 7 7 6 8 7 7 7 8 7 7 8 8 8 7 6 7 7 9 7 7 6 6 5 7 8 8 7 8 7 6 6 6 6 6
8 8 7 8 6 7 7 6 6 5 5 4 5 5 6 6 6 5 6 7 6 7 7 7 7 8 7 7 7 8 8 6 6 7 8 7 7 8 8 7 6 6 10 9 9 8 7 6 6 6 6 7
9 9 7 5 5 7 5 6 5 5 4 5 5 6 6 6 6 6 7 6 6 8 8 8 7 8 7 6 8 8 7 5 6 6 7 6 5 7 9 7 5 4 4 11 7 6 6 7 4 5 6 6
7 6 7 8 6 7 6 5 5 6 4 4 5 7 6 5 6 6 7 6 6 6 8 8 8 8 7 7 8 7 5 5 5 5 4 5 10 6 8 5 5 4 2 4 6 7 4 5 5 4 6 6
8 6 6 7 6 6 7 5 3 4 4 5 7 6 6 5 5 6 6 5 5 7 7 8 9 7 6 6 7 8 7 7 7 6 6 6 9 8 5 6 6 7 2 5 2 4 6 2 2 2 5 3
9 10 9 8 9 6 5 7 5 5 5 6 8 8 6 6 5 5 6 5 5 7 7 7 9 7 7 6 5 7 8 7 7 6 6 6 5 7 9 5 7 7 7 5 4 1 1 2 4 1 1 1
12 12 12 10 9 9 10 6 5 6 6 5 6 7 6 5 4 5 6 6 6 7 8 7 7 8 7 7 6 7 8 8 7 6 5 5 7 7 9 6 4 7 7 8 2 5 3 2 2 1 2 1
11 12 12 9 10 8 7 7 5 7 8 6 6 7 3 6 5 5 6 5 6 7 7 8 7 7 8 8 6 7 8 7 7 7 8 6 7 7 5 10 7 5 5 7 9 7 3 1 3 2 1 2
9 11 11 12 10 10 9 9 1 1 4 7 5 5 7 6 5 4 7 5 6 7 7 7 7 7 8 8 7 6 8 8 7 6 5 4 7 5 4 7 8 7 2 4 7 6 6 8 4 2 2 0
Wind_Direction
158 156 151 155 152 150 145 152 152 149 136 133 134 136 137 137 131 132 135 137 137 136 131 130 128 123 115 105 97 93 90 85 80 77 77 74 72 70 70 68 63 60 57 54 56 58 56 53 51 46 47 47
163 159 156 155 150 147 149 146 150 144 137 137 134 132 132 135 137 138 140 143 144 141 135 133 133 127 115 106 100 97 96 94 89 82 78 76 74 75 74 70 64 61 59 56 55 57 58 55 49 45 46 43
171 164 159 156 152 146 142 134 134 140 134 128 126 120 129 137 144 143 140 142 147 136 134 134 134 124 116 113 108 105 101 98 94 87 81 77 76 78 76 71 67 65 61 58 57 57 55 51 50 47 46 43
136 160 166 162 153 144 140 132 124 128 133 133 126 118 128 126 111 99 104 125 127 122 116 119 113 117 118 115 111 107 104 101 100 94 86 81 79 78 75 70 66 64 63 62 63 63 59 54 51 46 44 42
157 132 143 139 148 149 147 133 120 112 104 106 113 122 117 116 122 119 108 102 92 88 98 115 117 117 114 107 103 103 103 105 103 100 93 84 76 69 60 55 53 53 57 60 64 66 63 59 55 49 47 42
145 148 158 148 149 142 140 126 117 116 120 119 121 125 136 138 139 135 138 123 127 115 108 109 118 115 111 104 99 95 98 104 104 101 96 89 77 62 52 55 55 50 46 50 63 64 68 66 64 54 53 48
81 152 152 151 150 132 122 115 126 136 140 150 148 161 156 155 167 155 150 146 147 127 126 124 128 121 120 114 108 107 97 98 102 101 96 85 76 71 66 61 61 60 54 48 52 57 59 67 66 63 58 55
37 143 162 152 150 130 141 142 160 153 160 158 168 166 170 156 176 171 144 124 127 120 125 119 110 120 118 111 105 100 89 61 59 71 72 65 75 80 80 80 71 68 63 62 58 59 59 59 62 62 62 61
15 4 226 159 166 154 137 132 141 148 132 159 141 140 163 154 141 123 107 123 140 144 136 135 127 132 132 129 127 111 85 73 69 73 76 73 71 92 90 78 66 68 64 59 59 58 61 60 54 58 55 57
314 338 173 176 158 144 128 110 96 83 79 73 82 109 121 107 113 119 117 131 132 122 134 138 143 144 142 138 145 106 102 84 94 85 87 89 87 79 84 85 78 66 70 66 56 54 52 57 54 55 50 50
57 54 97 112 118 109 97 99 92 82 68 59 50 68 66 93 100 118 116 109 117 121 141 143 136 138 144 146 136 120 117 103 42 66 90 89 81 74 79 82 80 73 66 69 72 62 59 58 59 54 48 43
95 92 95 99 95 89 91 94 79 89 81 63 50 55 70 76 87 115 103 101 102 103 92 75 109 113 111 123 115 124 108 85 81 68 74 76 75 82 75 90 85 79 75 74 80 77 69 67 62 58 54 52
117 107 99 100 97 90 92 90 90 87 86 77 59 62 63 79 99 91 95 95 95 95 85 77 73 80 90 98 109 93 84 106 96 84 76 83 85 80 81 83 86 85 79 82 78 84 76 70 66 62 58 54
115 112 98 93 95 99 88 89 95 89 81 84 75 60 57 73 102 108 113 109 105 102 90 85 82 75 78 95 88 99 104 111 105 102 91 79 77 77 75 75 77 85 78 70 79 83 80 69 71 68 64 59
108 104 100 95 93 94 95 93 89 89 80 62 51 54 67 74 82 101 103 105 104 97 101 92 91 87 90 82 83 94 98 67 88 95 90 81 78 81 84 71 71 73 66 56 62 76 79 78 73 69 66 69
99 96 99 95 90 81 87 95 80 76 70 65 58 45 65 72 80 93 86 96 96 105 106 102 92 88 86 86 84 97 104 93 82 85 83 76 69 71 72 71 62 60 71 62 64 77 85 79 76 73 69 65
99 99 100 100 90 88 83 81 78 74 80 79 64 53 62 78 83 88 103 94 96 94 94 101 99 88 81 84 87 86 93 94 91 82 79 71 73 62 66 67 66 69 63 73 79 81 77 80 76 72 67 62
97 93 97 98 96 94 87 84 90 83 79 76 70 62 61 76 76 86 92 108 96 94 92 85 88 92 83 76 82 77 76 81 83 83 75 72 74 63 66 65 49 72 75 79 85 81 79 78 79 75 69 64
102 103 110 107 104 94 94 88 84 79 76 70 71 74 64 69 77 72 76 89 106 93 93 92 89 80 81 78 76 75 64 82 73 78 70 59 81 78 68 66 52 67 84 91 85 85 87 84 80 74 74 66
106 104 95 91 106 104 88 85 81 75 70 75 72 75 72 68 79 81 77 74 91 97 87 89 89 88 89 89 85 79 74 71 72 71 71 48 60 88 72 78 68 47 83 84 86 86 84 84 80 80 73 68
106 103 100 95 88 95 88 87 84 72 71 71 75 75 77 70 77 80 83 80 80 93 92 88 84 75 77 82 86 81 74 70 68 76 83 61 46 63 85 71 70 60 74 85 85 85 82 77 80 76 71 68
116 109 95 87 81 84 87 84 76 74 77 80 51 73 80 78 81 84 90 88 87 90 88 88 90 86 82 86 83 79 70 67 62 69 78 82 53 51 74 73 79 85 80 82 86 82 78 73 70 69 69 67
113 100 92 88 87 83 85 75 69 64 59 36 63 51 74 80 84 81 87 90 90 96 95 91 88 84 77 87 89 87 82 75 71 72 64 83 80 62 64 84 80 96 93 85 81 76 67 67 64 63 61 60
112 107 115 113 102 83 74 75 78 59 63 63 74 74 75 77 82 79 84 87 90 95 97 95 88 88 78 84 93 91 86 78 70 80 82 66 86 86 68 55 62 81 96 82 78 77 67 60 69 61 63 59
131 129 116 91 91 104 87 88 84 75 59 65 70 74 73 73 79 83 84 84 94 98 96 92 93 91 80 82 86 87 87 91 88 78 86 93 62 83 85 47 20 19 75 104 75 64 69 59 49 71 69 62
136 135 140 134 128 115 103 100 101 99 73 82 75 70 70 71 76 81 83 86 93 93 100 102 93 89 93 92 89 90 95 84 77 74 67 92 75 39 81 63 10 341 61 43 123 118 82 63 52 51 57 54
128 108 101 121 126 116 100 47 58 85 101 90 84 70 65 66 72 84 82 83 90 97 94 99 99 96 98 92 106 98 82 78 70 65 72 65 103 95 63 84 34 21 39 131 118 98 92 128 75 2 7 2
109 106 97 82 99 86 89 124 103 88 86 87 85 72 64 57 70 78 88 83 91 94 92 98 100 103 93 88 85 101 96 80 73 67 62 72 65 99 82 52 39 27 40 87 116 74 109 185 117 71 328 344
120 113 101 99 90 100 95 73 98 98 69 72 87 90 65 59 63 79 86 84 90 98 100 95 100 100 99 97 89 93 92 85 84 78 82 87 87 73 117 95 99 39 44 55 43 144 95 28 39 182 238 48
139 130 129 131 129 127 120 124 139 135 135 126 111 105 106 69 62 81 84 86 92 93 98 97 98 103 104 100 99 93 95 100 86 70 70 54 91 86 71 119 96 82 37 60 47 53 89 147 164 186 271 88
141 131 138 141 137 137 142 135 64 60 106 120 110 106 95 89 69 68 94 85 89 91 93 98 99 102 101 101 98 97 96 88 88 85 79 73 76 81 104 93 90 91 82 45 45 43 59 62 52 101 119 165